TimeCST,TemperatureF,Dew PointF,Humidity,Sea Level PressureIn,VisibilityMPH,Wind Direction,Wind SpeedMPH,Gust SpeedMPH,PrecipitationIn,Events,Conditions,WindDirDegrees,DateUTC
12:53 AM,-2.9,-9.0,75,30.19,8.0,West,12.7,-,N/A,,Overcast,260,2013-02-01 06:53:00
1:28 AM,-5.8,-11.2,77,30.13,10.0,West,11.5,-,N/A,,Partly Cloudy,260,2013-02-01 07:28:00
1:53 AM,-6.0,-13.0,72,30.22,10.0,West,11.5,-,N/A,,Clear,260,2013-02-01 07:53:00
2:53 AM,-9.0,-17.0,68,30.24,10.0,West,11.5,-,N/A,,Clear,260,2013-02-01 08:53:00
3:53 AM,-11.0,-18.9,68,30.26,10.0,WSW,10.4,-,N/A,,Clear,250,2013-02-01 09:53:00
4:53 AM,-13.0,-20.0,71,30.27,10.0,WSW,9.2,-,N/A,,Clear,250,2013-02-01 10:53:00
5:53 AM,-15.0,-22.0,71,30.28,10.0,WSW,8.1,-,N/A,,Clear,240,2013-02-01 11:53:00
6:53 AM,-16.1,-23.1,71,30.29,10.0,WSW,9.2,-,N/A,,Clear,240,2013-02-01 12:53:00
7:53 AM,-16.1,-23.1,71,30.30,10.0,WSW,10.4,-,N/A,,Clear,240,2013-02-01 13:53:00
8:53 AM,-15.0,-24.0,64,30.30,10.0,WSW,10.4,-,N/A,,Clear,250,2013-02-01 14:53:00
9:53 AM,-13.0,-23.1,61,30.30,10.0,WSW,10.4,-,N/A,,Clear,250,2013-02-01 15:53:00
10:53 AM,-9.9,-20.9,59,30.28,10.0,WSW,8.1,-,N/A,,Clear,240,2013-02-01 16:53:00
11:53 AM,-7.1,-18.9,56,30.26,10.0,WSW,9.2,-,N/A,,Clear,250,2013-02-01 17:53:00
12:53 PM,-4.0,-17.0,54,30.24,10.0,WSW,9.2,-,N/A,,Clear,240,2013-02-01 18:53:00
1:53 PM,-0.9,-16.1,49,30.21,10.0,West,9.2,-,N/A,,Clear,260,2013-02-01 19:53:00
2:53 PM,-0.0,-15.0,49,30.20,10.0,Variable,6.9,-,N/A,,Clear,0,2013-02-01 20:53:00
3:53 PM,-2.0,-16.1,51,30.20,10.0,WSW,5.8,-,N/A,,Scattered Clouds,250,2013-02-01 21:53:00
4:53 PM,-0.9,-14.1,54,30.19,10.0,WSW,4.6,-,N/A,,Overcast,250,2013-02-01 22:53:00
5:53 PM,-0.9,-15.0,52,30.19,10.0,WSW,9.2,-,N/A,,Overcast,240,2013-02-01 23:53:00
6:53 PM,-0.9,-14.1,54,30.19,10.0,SW,6.9,-,N/A,,Overcast,230,2013-02-02 00:53:00
7:53 PM,-0.9,-13.0,57,30.19,10.0,SW,4.6,-,N/A,,Overcast,230,2013-02-02 01:53:00
8:53 PM,-0.9,-13.0,57,30.19,10.0,SW,4.6,-,N/A,,Overcast,220,2013-02-02 02:53:00
9:53 PM,-0.9,-13.0,57,30.19,10.0,SW,8.1,-,N/A,,Overcast,230,2013-02-02 03:53:00
10:53 PM,-0.9,-13.0,57,30.19,10.0,SW,6.9,-,N/A,,Overcast,230,2013-02-02 04:53:00
11:53 PM,-0.9,-11.9,60,30.18,10.0,SW,5.8,-,N/A,,Overcast,230,2013-02-02 05:53:00